Terminal Aerodrome Forecast
Issued by NWS Portland, OR

Home | Current Version | Previous Version | Text Only | Print | Product List | Glossary On
Versions: 1 2 3 4 5 6 7 8 9 10 11 12 13 14 15 16 17 18 19 20 21 22 23 24 25 26
737
FTUS46 KPQR 302324
TAFHIO
TAF
KHIO 302324Z 3100/3124 32013KT P6SM SKC
     FM310700 31006KT P6SM SKC
     FM311400 30004KT P6SM SCT025
     FM311700 33005KT P6SM SKC=

USA.gov is the U.S. government's official web portal to all federal, state and local government web resources and services.